sat.trackr.live / text

‹ back to catalog

ONEWEB-0192

NORAD 48222 · 2021-031N

PAYLOAD ACTIVE UNKNOWN

§ Identity

Operator
Country
UK
Launch date
2021-04-25
Launch site
VOSTO
Launch vehicle
Mass (kg)
RCS (m²)

Purposes: comms

External: N2YO · Heavens-Above · Gunter

§ Orbital elements

Epoch: 2026-05-25T02:30:03.076128Z

Period
109.55 min
Inclination
87.8933°
Eccentricity
0.0001722
Mean motion
13.14503842 rev/d
Perigee alt
1,204.5 km
Apogee alt
1,207.1 km
Semi-major
7,583.9 km
B*
5.0783e-4
RAAN
294.3087°
Arg perigee
98.3380°
Mean anomaly
261.7945°
Rev number
24,514

§ Raw data

ONEWEB-01921 48222U 21031N   26145.10420227  .00000201  00000+0  50783-3 0  99992 48222  87.8933 294.3087 0001722  98.3380 261.7945 13.14503842245145

JSON: /api/v1/satellites/48222 · /tle

For live sub-satellite position, see the globe view (requires WebGL).

§ Visibility from observer

Set your observer location to see the next 7 days of passes ≥ 10°. The values pass through the URL so the page stays shareable.

No JS? Fill the form by hand. The geolocation button needs JavaScript.